TimeCDT,TemperatureF,Dew PointF,Humidity,Sea Level PressureIn,VisibilityMPH,Wind Direction,Wind SpeedMPH,Gust SpeedMPH,PrecipitationIn,Events,Conditions,WindDirDegrees,DateUTC
12:53 AM,66.9,48.9,52,30.08,9.0,ENE,6.9,-,N/A,,Partly Cloudy,70,2013-07-02 05:53:00
1:53 AM,66.0,50.0,56,30.08,9.0,NE,6.9,-,N/A,,Mostly Cloudy,50,2013-07-02 06:53:00
2:53 AM,64.0,51.1,63,30.08,9.0,NE,4.6,-,N/A,,Scattered Clouds,50,2013-07-02 07:53:00
3:53 AM,66.0,50.0,56,30.07,9.0,Calm,Calm,-,N/A,,Overcast,0,2013-07-02 08:53:00
4:53 AM,64.0,52.0,65,30.08,9.0,ENE,3.5,-,N/A,,Mostly Cloudy,60,2013-07-02 09:53:00
5:53 AM,62.1,52.0,70,30.09,8.0,NNE,5.8,-,N/A,,Mostly Cloudy,30,2013-07-02 10:53:00
6:53 AM,62.1,51.1,67,30.10,7.0,NE,3.5,-,N/A,,Mostly Cloudy,50,2013-07-02 11:53:00
7:53 AM,64.9,51.1,61,30.11,7.0,Calm,Calm,-,N/A,,Scattered Clouds,0,2013-07-02 12:53:00
9:53 AM,73.0,46.9,39,30.11,8.0,South,4.6,-,N/A,,Partly Cloudy,180,2013-07-02 14:53:00
10:53 AM,77.0,45.0,32,30.11,8.0,Calm,Calm,-,N/A,,Partly Cloudy,0,2013-07-02 15:53:00
11:53 AM,78.1,43.0,29,30.11,10.0,Variable,5.8,-,N/A,,Partly Cloudy,0,2013-07-02 16:53:00
12:53 PM,80.1,43.0,27,30.10,10.0,ENE,6.9,-,N/A,,Partly Cloudy,70,2013-07-02 17:53:00
1:53 PM,80.1,43.0,27,30.08,10.0,ENE,10.4,-,N/A,,Scattered Clouds,60,2013-07-02 18:53:00
2:53 PM,82.0,42.1,24,30.05,10.0,ENE,12.7,18.4,N/A,,Scattered Clouds,70,2013-07-02 19:53:00
3:53 PM,82.9,39.9,22,30.02,10.0,Variable,5.8,-,N/A,,Scattered Clouds,0,2013-07-02 20:53:00
4:53 PM,84.9,39.0,20,30.00,10.0,Variable,4.6,-,N/A,,Scattered Clouds,0,2013-07-02 21:53:00
5:53 PM,82.9,39.9,22,29.99,10.0,ESE,5.8,-,N/A,,Scattered Clouds,120,2013-07-02 22:53:00
6:53 PM,82.0,39.0,22,29.98,10.0,NE,3.5,-,N/A,,Scattered Clouds,50,2013-07-02 23:53:00
7:53 PM,81.0,39.9,23,29.98,10.0,ENE,6.9,-,N/A,,Scattered Clouds,60,2013-07-03 00:53:00
8:53 PM,78.1,39.0,25,29.99,10.0,East,9.2,-,N/A,,Scattered Clouds,90,2013-07-03 01:53:00
9:53 PM,75.0,39.9,28,29.99,10.0,ESE,10.4,-,N/A,,Scattered Clouds,110,2013-07-03 02:53:00
10:53 PM,71.1,42.1,35,30.02,10.0,ESE,8.1,-,N/A,,Partly Cloudy,120,2013-07-03 03:53:00
11:53 PM,69.1,43.0,39,30.03,10.0,ESE,5.8,-,N/A,,Partly Cloudy,120,2013-07-03 04:53:00